Wetbulb
66.01 66.61 64.67 62.70 58.42 58.89 55.92 56.13 59.77 60.51 61.41 63.41 62.73 60.12 60.29 62.70 59.84 58.68 69.40 71.88 72.78 75.09 75.69 75.74 75.45 74.66 73.83 73.27 73.50 73.70 74.10 73.49 73.14 72.83 73.00 73.30 73.53 73.59 73.39 73.09 72.77 72.77 73.22 73.41 73.56 73.64 73.46 73.21 72.78
61.33 62.48 60.33 58.53 57.11 54.81 56.27 58.29 58.60 61.90 63.73 64.00 62.20 63.49 62.40 60.97 65.91 67.30 68.14 71.92 74.21 75.31 75.06 75.71 75.33 74.77 73.87 73.40 73.25 73.40 73.28 72.85 72.94 73.34 73.13 73.18 73.23 73.30 73.07 73.01 73.27 73.56 73.43 73.15 72.91 72.68 72.38 72.21 71.91
62.87 59.36 57.38 56.33 55.97 52.46 54.74 59.20 60.73 62.41 64.83 64.62 64.43 66.22 64.20 61.87 66.72 68.07 70.60 73.27 75.03 74.96 75.09 76.13 75.33 74.93 73.83 73.40 73.18 73.20 73.00 73.12 73.27 73.34 73.26 73.02 73.28 73.51 73.94 73.56 73.57 73.42 73.18 72.69 72.31 71.89 71.67 71.32 70.95
59.26 57.06 54.64 52.76 51.91 55.60 58.19 61.60 62.53 63.74 64.82 64.80 65.20 62.28 65.84 68.35 67.65 69.35 72.91 74.04 74.32 74.38 74.79 75.68 75.50 74.88 73.98 73.40 73.23 73.20 73.15 73.25 73.34 73.43 73.51 73.33 73.65 73.70 73.67 73.64 73.40 73.16 72.53 71.99 71.97 71.78 71.75 71.68 71.54
55.76 55.05 52.39 50.53 49.87 51.38 55.45 60.37 62.83 62.12 60.63 61.92 63.74 61.97 62.97 69.29 71.38 72.57 73.07 73.57 73.68 73.96 74.57 75.79 74.93 74.83 74.23 73.67 73.53 73.35 73.33 73.88 74.15 73.12 73.07 73.26 73.65 73.61 73.55 73.44 72.90 72.54 72.18 71.67 71.24 71.03 70.63 70.84 70.93
55.13 54.08 51.24 50.38 49.91 51.55 54.70 61.15 62.09 61.12 60.71 60.92 63.25 62.95 63.55 70.87 70.97 71.97 73.17 73.06 74.28 73.59 74.41 75.48 75.00 75.20 74.75 73.85 73.58 73.53 73.98 73.86 73.85 73.55 73.37 73.60 73.63 73.51 73.35 73.07 72.55 72.00 71.67 71.16 70.88 70.84 70.74 70.91 71.35
53.80 53.37 49.70 48.74 51.58 53.73 58.40 61.88 62.25 60.24 59.21 59.53 64.17 62.21 64.97 68.73 71.87 72.62 72.68 73.25 73.53 73.93 74.09 75.32 74.99 75.09 74.78 74.35 73.88 73.76 73.83 74.10 74.23 74.18 74.20 73.61 73.56 73.26 73.16 72.53 72.23 71.97 71.74 71.83 71.83 72.19 72.37 72.61 72.71
54.09 53.83 48.83 49.29 50.42 49.98 59.94 61.59 62.21 61.10 59.30 63.29 64.71 61.49 63.86 68.39 72.30 71.70 72.11 72.41 73.00 73.49 74.00 74.65 75.10 74.16 74.13 74.49 74.25 73.98 73.81 73.63 73.78 73.63 73.71 73.53 73.38 73.19 72.81 72.86 72.49 72.65 72.55 72.60 72.88 73.13 73.58 73.76 74.20
52.73 53.42 50.52 49.53 50.06 50.99 58.29 60.77 62.09 63.62 62.13 61.95 63.72 64.12 65.83 70.57 71.05 70.03 70.00 70.67 71.64 72.14 73.17 73.99 74.23 74.35 73.83 73.65 74.27 73.77 73.76 73.51 73.78 73.58 73.53 73.51 72.90 72.73 72.49 73.04 72.57 72.44 72.93 73.56 73.98 74.15 74.44 74.42 74.50
52.60 52.44 52.37 52.06 53.09 51.15 53.04 59.34 61.40 61.34 60.98 60.75 62.16 65.80 68.77 70.26 69.69 67.77 67.56 67.79 69.59 70.62 71.98 73.06 73.72 73.88 73.65 72.85 73.88 74.15 73.85 73.75 73.71 73.51 73.47 73.10 72.93 72.78 72.21 72.53 72.69 73.48 73.96 74.30 74.38 74.60 74.40 74.73 75.04
50.88 51.99 52.55 52.27 53.11 52.55 52.98 59.66 62.00 60.70 60.06 61.72 61.21 64.54 67.11 68.39 67.86 66.34 66.65 67.41 68.38 70.41 71.59 72.48 73.47 73.76 73.38 72.53 73.22 73.49 73.47 73.73 74.07 74.04 73.96 73.94 72.63 72.87 72.80 73.03 73.03 73.56 73.58 74.51 74.68 74.91 74.93 74.95 74.79
49.55 50.99 51.19 50.75 51.54 50.72 51.15 59.15 60.01 61.60 61.45 62.46 63.24 66.47 66.77 66.28 66.31 65.83 65.69 66.87 68.06 69.85 71.00 72.32 73.03 73.11 72.82 72.82 72.80 73.03 72.43 73.05 72.82 72.97 74.14 73.49 72.84 72.62 72.26 71.75 72.38 73.31 74.53 74.10 74.06 74.07 74.82 75.00 74.80
48.74 49.90 50.17 51.00 50.48 50.60 51.02 52.65 55.19 59.43 63.00 63.38 64.35 66.15 66.09 66.33 66.87 66.94 67.23 67.84 68.79 69.13 70.82 71.96 72.74 72.69 72.16 71.47 72.56 72.70 72.21 72.39 72.87 72.59 73.57 73.38 72.56 72.21 72.24 71.83 71.75 72.08 73.15 72.90 73.00 73.80 74.36 74.08 73.59
49.88 49.22 50.19 51.38 51.51 50.79 50.23 51.66 56.19 56.25 63.08 63.22 64.37 65.23 66.16 66.56 67.21 67.49 67.52 67.22 67.92 68.78 70.18 71.66 72.22 72.60 72.52 72.33 72.75 72.43 72.59 72.76 72.81 72.67 72.74 73.33 72.87 72.28 71.46 71.21 71.46 72.01 72.66 72.87 73.05 73.58 73.37 72.75 72.31
49.37 48.40 49.82 50.69 51.02 50.82 51.08 49.88 54.32 58.52 62.24 62.33 63.70 64.96 65.94 66.56 67.58 67.66 68.66 68.66 68.87 68.91 70.55 71.27 72.18 72.64 72.31 72.44 72.62 72.48 72.52 72.27 72.07 72.15 73.10 73.06 73.09 72.46 72.57 71.50 72.51 72.60 72.94 72.89 72.80 72.62 72.51 71.96 72.34
48.12 48.07 45.34 49.75 49.84 50.11 50.79 50.31 52.67 56.43 58.93 61.10 62.69 63.24 65.12 66.46 67.22 68.38 69.17 69.67 70.59 70.00 69.57 71.17 71.47 71.93 72.46 72.24 72.34 72.23 72.40 72.27 72.11 72.00 72.24 72.35 72.24 72.77 72.67 72.18 72.45 73.29 73.31 73.80 73.69 72.90 72.42 72.11 71.33
46.32 43.08 44.24 46.60 49.71 49.36 49.42 48.84 52.04 52.93 54.03 56.29 62.05 63.00 63.29 65.37 67.27 68.67 69.32 69.73 70.29 70.69 70.54 70.08 71.33 71.24 71.69 72.30 72.07 72.36 72.40 71.85 71.98 72.23 72.90 72.94 72.74 72.71 72.68 72.29 73.18 73.74 73.16 72.81 72.76 71.15 69.20 67.78 67.16
42.47 43.50 44.50 45.21 48.82 49.34 48.14 49.03 52.43 53.56 52.69 54.30 58.23 63.29 63.40 64.00 65.56 68.38 68.87 69.94 70.69 70.92 71.31 71.00 70.81 71.66 71.70 71.39 71.65 71.41 72.10 72.10 73.68 73.85 74.07 74.59 73.87 72.83 72.77 71.96 70.12 69.83 69.36 69.50 69.74 69.66 69.30 68.10 66.92
45.44 44.94 44.69 47.03 49.38 47.81 48.47 49.15 51.20 53.67 52.17 53.39 54.67 60.42 64.50 65.27 66.87 68.91 70.47 70.45 70.26 70.92 71.01 71.02 70.51 71.33 70.62 69.62 69.64 69.89 69.80 70.59 70.69 71.23 72.74 73.33 73.36 72.68 72.17 70.59 70.95 71.18 70.73 70.09 70.96 70.52 68.92 69.22 67.98
45.42 44.36 44.62 46.78 48.36 47.87 48.88 48.49 51.46 52.96 53.20 54.27 55.83 57.21 62.57 66.15 67.42 69.43 70.68 71.69 70.30 69.78 70.99 71.10 71.49 70.71 70.63 70.29 70.84 70.76 70.80 69.92 69.55 70.19 71.17 72.07 71.87 72.02 71.23 70.88 70.00 69.50 68.76 68.60 68.49 68.96 67.93 67.78 67.01
45.59 44.49 44.50 44.73 47.04 48.72 47.77 47.06 49.76 52.06 51.86 53.54 56.21 59.31 61.13 64.67 66.97 68.86 69.79 70.74 71.73 70.12 69.68 70.34 71.39 71.08 71.56 72.39 71.93 69.83 68.57 67.89 67.20 67.46 67.26 67.01 68.97 68.07 67.75 67.09 66.57 66.02 65.06 64.37 65.01 65.78 65.95 62.80 65.80
44.67 47.86 46.67 45.81 44.81 42.87 47.69 41.50 48.70 51.40 51.29 53.50 56.73 59.70 62.11 64.43 66.91 68.94 69.68 70.24 70.81 71.07 70.73 70.79 71.34 71.78 72.09 72.78 70.96 70.16 69.74 68.31 67.65 65.79 65.99 66.31 66.70 66.36 66.03 64.95 64.44 64.30 63.22 63.52 62.95 62.95 62.92 62.96 60.87
46.72 47.73 47.46 47.05 45.82 44.96 46.16 43.07 46.92 48.93 50.28 53.03 55.38 60.80 63.59 65.69 67.01 67.77 69.12 70.06 70.86 71.01 71.02 71.61 72.07 72.43 72.51 72.44 71.90 71.01 70.72 68.93 67.31 65.32 62.94 63.53 63.02 62.81 62.27 61.90 62.10 62.55 61.11 62.25 62.35 61.56 61.62 61.66 61.17
50.27 49.05 48.23 45.82 45.36 40.50 45.15 44.09 44.88 47.97 50.80 53.04 55.08 57.36 62.65 65.54 67.35 68.56 69.57 68.81 69.59 70.72 70.78 71.31 71.40 70.75 72.07 72.40 71.48 71.05 68.91 66.41 64.96 63.74 60.61 59.98 60.14 60.83 61.44 61.44 61.39 61.13 60.45 59.96 59.57 60.55 61.57 61.59 61.26
48.82 46.94 41.24 39.69 39.75 38.85 46.53 43.35 46.21 51.38 53.31 53.75 54.71 55.91 59.73 64.91 66.92 67.65 68.16 67.73 68.33 68.54 69.43 70.78 69.74 68.92 70.08 70.33 70.51 69.88 68.16 66.31 65.02 61.75 60.00 59.55 58.60 58.74 59.45 60.46 60.71 60.02 59.78 58.60 58.97 59.36 60.41 60.42 59.80
47.17 46.90 42.01 35.73 37.21 40.41 44.67 41.65 46.20 52.53 54.85 55.58 54.86 55.81 56.25 61.70 65.71 67.23 68.46 68.81 67.50 66.54 66.51 67.93 67.59 66.22 68.10 68.10 68.37 67.63 66.67 64.79 62.73 60.88 58.26 59.11 58.58 58.49 59.42 59.04 59.12 57.99 57.68 57.27 57.79 57.17 58.21 59.03 57.92
46.14 44.13 46.69 43.46 45.12 40.43 43.76 47.28 50.46 52.11 52.85 54.52 55.57 56.23 56.20 59.85 63.84 66.12 68.33 69.07 66.10 64.07 64.38 66.57 67.06 65.71 67.22 67.60 66.12 64.40 61.56 60.65 59.28 60.19 61.05 59.57 59.04 57.63 57.65 57.75 57.34 57.01 56.81 56.62 57.13 56.67 56.89 56.99 56.33
43.00 46.08 42.51 44.39 36.76 35.92 41.64 42.90 44.29 49.58 49.95 52.41 53.39 57.39 59.89 58.45 61.81 65.12 67.01 67.03 62.72 62.53 62.53 64.41 63.97 65.54 66.42 66.15 64.40 60.57 60.62 61.21 60.55 60.15 59.51 59.01 58.11 57.32 56.90 56.51 56.36 55.82 55.96 55.52 56.17 56.31 56.47 55.79 55.20
38.44 40.13 40.47 41.49 41.43 37.43 37.46 42.33 49.00 46.56 48.24 49.23 50.81 53.89 59.82 60.97 60.78 64.13 65.03 61.12 61.83 61.57 61.91 63.59 63.43 63.39 64.68 65.17 62.85 60.90 60.11 59.73 59.76 59.80 58.76 57.97 57.52 57.10 56.22 56.09 55.79 55.40 55.28 55.07 55.82 55.67 54.81 54.35 54.53
40.84 36.29 36.44 33.75 35.38 35.24 37.37 39.92 47.75 47.09 47.86 49.81 50.17 52.84 56.11 62.16 63.18 63.92 60.47 61.31 62.27 63.67 63.66 63.57 62.97 63.55 64.10 63.20 60.79 58.82 58.66 58.19 58.57 57.43 57.74 57.25 56.72 56.70 56.45 55.85 55.31 54.57 54.37 55.36 54.56 53.38 53.49 53.30 52.62
MSLP
1010.94 1011.01 1010.85 1010.05 1009.37 1008.04 1007.33 1007.79 1008.09 1007.77 1007.75 1007.89 1007.95 1008.53 1008.78 1009.39 1010.14 1011.56 1012.21 1012.38 1012.52 1012.99 1013.59 1014.31 1015.11 1015.54 1015.68 1015.98 1016.20 1016.48 1016.65 1016.76 1016.86 1017.00 1017.16 1017.28 1017.38 1017.44 1017.64 1017.84 1017.88 1017.89 1017.94 1018.04 1018.11 1018.15 1018.21 1018.31 1018.36
1010.91 1010.97 1010.33 1009.27 1008.28 1007.33 1006.92 1007.39 1007.45 1007.58 1008.02 1008.23 1008.38 1008.63 1009.02 1009.66 1010.63 1011.58 1012.22 1012.53 1012.62 1013.26 1013.96 1014.47 1015.31 1015.62 1015.70 1015.98 1016.20 1016.44 1016.72 1016.98 1017.16 1017.22 1017.35 1017.53 1017.63 1017.72 1017.85 1017.96 1017.95 1017.98 1018.16 1018.24 1018.27 1018.31 1018.36 1018.45 1018.56
1010.78 1010.65 1009.72 1008.85 1008.18 1007.31 1007.02 1006.96 1007.00 1007.76 1008.21 1008.43 1008.52 1008.98 1009.67 1010.39 1011.04 1011.42 1011.83 1012.50 1012.80 1013.49 1014.12 1014.64 1015.42 1015.70 1015.85 1016.12 1016.36 1016.58 1016.80 1017.05 1017.30 1017.42 1017.55 1017.72 1017.84 1017.91 1018.03 1018.17 1018.21 1018.25 1018.33 1018.38 1018.46 1018.50 1018.56 1018.64 1018.72
1010.31 1010.09 1009.96 1008.84 1007.78 1007.58 1007.47 1007.36 1007.65 1007.78 1008.36 1008.67 1008.95 1009.31 1010.36 1011.10 1011.22 1011.54 1012.24 1012.73 1013.22 1013.70 1014.20 1015.02 1015.56 1015.79 1016.04 1016.34 1016.54 1016.68 1016.90 1017.12 1017.37 1017.64 1017.77 1017.91 1018.05 1018.15 1018.24 1018.31 1018.36 1018.44 1018.50 1018.61 1018.74 1018.81 1018.78 1018.80 1018.81
1010.22 1009.71 1008.90 1008.44 1007.89 1007.80 1007.90 1007.91 1008.09 1008.05 1008.68 1008.91 1009.23 1009.71 1010.48 1011.49 1011.83 1012.15 1012.52 1013.02 1013.34 1013.90 1014.34 1014.93 1015.50 1015.75 1016.08 1016.38 1016.68 1016.84 1017.02 1017.17 1017.40 1017.61 1017.88 1018.05 1018.26 1018.35 1018.42 1018.39 1018.44 1018.60 1018.76 1018.84 1018.87 1018.92 1018.93 1018.82 1018.75
1009.49 1009.58 1008.69 1008.16 1007.96 1007.89 1008.02 1008.30 1008.35 1008.54 1008.88 1008.97 1009.37 1009.83 1010.72 1011.85 1012.24 1012.53 1012.71 1012.99 1013.28 1013.94 1014.37 1015.00 1015.61 1015.84 1016.19 1016.48 1016.82 1017.01 1017.20 1017.42 1017.51 1017.74 1017.93 1018.11 1018.24 1018.36 1018.56 1018.67 1018.71 1018.74 1018.82 1018.84 1018.94 1018.96 1018.93 1018.89 1018.76
1009.04 1008.96 1008.63 1008.52 1007.99 1007.84 1008.13 1008.52 1008.26 1008.64 1008.99 1009.16 1009.47 1009.80 1010.82 1011.67 1012.33 1012.69 1013.01 1013.32 1013.46 1013.88 1014.39 1014.89 1015.41 1015.93 1016.26 1016.52 1016.84 1017.16 1017.40 1017.60 1017.58 1017.86 1018.03 1018.16 1018.29 1018.40 1018.54 1018.77 1018.76 1018.81 1018.84 1018.88 1018.80 1018.86 1018.94 1018.80 1018.73
1009.24 1008.94 1008.61 1008.40 1007.86 1007.65 1008.07 1008.32 1008.43 1008.58 1008.79 1009.46 1009.57 1009.56 1010.20 1011.10 1012.36 1012.98 1013.09 1013.36 1013.66 1013.98 1014.17 1014.68 1015.33 1015.53 1016.05 1016.41 1016.96 1017.35 1017.48 1017.56 1017.72 1017.89 1018.18 1018.31 1018.44 1018.47 1018.55 1018.67 1018.78 1018.82 1018.79 1018.83 1018.77 1018.72 1018.83 1018.75 1018.55
1009.38 1008.64 1008.09 1007.89 1007.70 1007.26 1007.77 1007.91 1008.52 1008.87 1008.63 1009.04 1009.29 1009.68 1010.48 1011.53 1012.68 1012.98 1012.92 1013.28 1013.54 1013.92 1014.28 1014.53 1015.00 1015.44 1015.89 1016.17 1016.67 1017.23 1017.52 1017.74 1017.93 1018.05 1018.23 1018.37 1018.09 1018.14 1018.25 1018.41 1018.69 1018.72 1018.72 1018.70 1018.60 1018.51 1018.54 1018.44 1018.14
1008.70 1008.32 1007.90 1007.94 1007.75 1007.43 1007.65 1007.88 1008.02 1008.37 1008.36 1008.61 1009.18 1010.23 1010.97 1011.67 1012.21 1012.38 1012.44 1012.48 1012.90 1013.40 1014.00 1014.48 1014.84 1015.24 1015.77 1016.18 1016.49 1016.78 1016.98 1017.25 1017.44 1017.68 1017.91 1017.95 1018.16 1018.12 1018.15 1018.32 1018.53 1018.64 1018.51 1018.38 1018.28 1018.18 1018.16 1017.88 1017.22
1008.80 1007.96 1007.94 1007.75 1007.80 1007.78 1007.78 1007.80 1007.87 1007.57 1007.52 1007.57 1008.00 1009.43 1010.70 1011.35 1011.88 1011.94 1011.98 1011.96 1012.21 1012.87 1013.66 1014.17 1014.81 1015.32 1015.65 1015.76 1016.26 1016.51 1016.74 1017.01 1017.24 1017.54 1017.77 1017.96 1018.05 1018.05 1017.96 1017.92 1017.88 1018.04 1018.04 1017.72 1017.67 1017.54 1017.22 1017.10 1017.01
1008.65 1008.18 1008.01 1007.82 1007.83 1007.84 1007.53 1007.51 1007.28 1007.18 1006.91 1007.31 1007.68 1008.60 1010.10 1010.72 1011.06 1011.10 1011.50 1012.10 1012.59 1013.02 1013.50 1014.04 1014.53 1015.22 1015.67 1015.76 1016.02 1016.24 1016.79 1016.87 1017.15 1017.52 1017.72 1017.90 1018.02 1017.86 1017.92 1017.68 1017.66 1017.82 1017.58 1017.55 1017.48 1017.28 1017.17 1017.01 1016.87
1008.68 1008.16 1008.05 1007.85 1007.83 1007.66 1007.62 1007.32 1007.18 1006.51 1006.92 1007.18 1007.88 1008.56 1009.36 1010.23 1010.62 1010.85 1011.24 1011.94 1012.55 1012.81 1013.22 1013.74 1014.30 1014.93 1015.46 1015.98 1015.72 1016.01 1016.58 1016.68 1016.84 1017.35 1017.49 1017.58 1017.58 1017.70 1017.64 1017.61 1017.75 1017.66 1017.60 1017.43 1017.16 1016.94 1016.88 1016.60 1016.52
1008.67 1008.40 1008.04 1007.69 1007.53 1007.50 1007.29 1007.28 1007.26 1005.47 1006.40 1006.96 1007.66 1008.39 1008.86 1009.50 1010.06 1010.60 1010.97 1011.44 1012.02 1012.40 1012.71 1013.34 1013.90 1014.44 1014.90 1015.38 1015.48 1015.66 1015.95 1016.12 1016.59 1016.80 1017.00 1017.24 1017.35 1017.48 1017.34 1017.43 1017.44 1017.41 1017.28 1017.16 1017.05 1016.66 1016.57 1016.38 1016.35
1008.94 1008.51 1008.12 1007.57 1007.28 1007.09 1007.14 1006.92 1006.32 1005.76 1006.28 1006.50 1007.09 1007.88 1008.58 1009.15 1009.81 1009.65 1009.96 1010.56 1011.27 1011.88 1012.36 1012.73 1013.30 1013.89 1014.46 1014.80 1015.15 1015.40 1015.54 1015.72 1016.08 1016.41 1016.72 1016.91 1017.22 1017.16 1017.33 1017.06 1017.02 1017.01 1017.11 1016.93 1016.79 1016.53 1016.48 1016.44 1016.02
1008.89 1008.74 1007.76 1007.29 1007.32 1007.09 1007.05 1005.86 1005.49 1005.97 1006.35 1006.48 1006.86 1007.45 1007.92 1008.35 1008.33 1009.03 1009.52 1010.12 1010.94 1011.42 1011.86 1012.59 1012.88 1013.32 1013.92 1014.29 1014.71 1015.09 1015.21 1015.44 1015.72 1016.06 1016.30 1016.65 1016.65 1016.92 1017.11 1016.97 1016.90 1016.98 1017.06 1016.72 1016.54 1016.67 1016.52 1016.47 1016.40
1009.14 1008.30 1008.13 1007.55 1007.54 1007.19 1006.84 1005.72 1005.35 1005.70 1006.02 1006.29 1006.58 1006.70 1007.05 1007.43 1008.01 1008.17 1008.63 1009.38 1010.12 1010.68 1011.31 1012.06 1012.65 1012.94 1013.59 1014.18 1014.43 1014.79 1015.14 1015.44 1015.65 1015.92 1016.12 1016.23 1016.37 1016.44 1016.88 1016.80 1016.89 1017.00 1017.06 1017.00 1016.95 1017.08 1017.25 1017.03 1016.67
1008.82 1008.67 1008.50 1008.00 1007.84 1007.50 1007.00 1006.21 1005.62 1005.73 1005.89 1005.73 1006.08 1006.17 1006.21 1006.32 1006.57 1006.73 1007.71 1008.58 1009.35 1010.04 1010.79 1011.52 1012.18 1012.72 1013.31 1013.86 1014.41 1014.73 1015.08 1015.65 1015.61 1015.76 1015.93 1015.89 1016.09 1016.26 1016.66 1017.06 1017.32 1017.43 1017.25 1017.19 1017.19 1017.12 1017.06 1017.08 1016.95
1009.41 1009.09 1008.60 1008.34 1008.10 1007.97 1006.82 1006.29 1005.71 1005.50 1005.77 1005.24 1005.20 1005.46 1005.54 1005.36 1005.46 1006.46 1007.24 1008.08 1008.77 1009.50 1010.19 1010.78 1011.45 1011.96 1012.61 1013.15 1013.82 1014.76 1015.00 1015.50 1015.77 1015.83 1016.00 1016.00 1016.30 1016.47 1016.69 1016.84 1017.25 1017.24 1017.20 1017.30 1017.36 1017.30 1017.18 1016.90 1016.98
1009.56 1009.13 1008.52 1008.44 1008.12 1007.91 1006.62 1005.88 1005.32 1004.88 1004.72 1004.61 1004.40 1004.60 1004.83 1004.65 1005.24 1006.11 1006.74 1007.60 1008.23 1008.88 1009.44 1010.02 1010.44 1011.26 1012.06 1012.60 1013.16 1014.06 1014.62 1015.40 1015.70 1015.76 1015.85 1016.02 1016.18 1016.36 1016.62 1016.79 1017.13 1017.36 1017.29 1017.44 1017.45 1017.41 1017.09 1017.01 1017.12
1009.19 1008.85 1008.65 1008.39 1008.08 1007.62 1006.84 1005.46 1004.73 1004.45 1004.51 1004.44 1004.35 1004.14 1004.48 1004.58 1004.69 1005.50 1006.26 1007.15 1007.86 1008.48 1008.94 1009.48 1009.94 1010.73 1011.40 1012.10 1013.00 1014.03 1014.78 1015.46 1015.80 1016.12 1016.44 1016.48 1016.54 1016.61 1016.93 1017.36 1017.30 1017.57 1017.63 1017.91 1017.96 1017.56 1017.48 1017.10 1017.30
1008.54 1008.28 1008.21 1008.14 1008.09 1007.04 1006.88 1004.92 1004.33 1004.01 1003.93 1003.85 1003.52 1003.60 1003.78 1004.30 1004.76 1005.14 1006.09 1006.90 1007.52 1008.02 1008.71 1009.06 1009.72 1010.36 1011.02 1011.73 1012.42 1012.98 1013.44 1014.28 1015.11 1015.98 1016.54 1016.73 1016.96 1017.31 1017.47 1017.62 1017.73 1017.88 1017.80 1018.08 1018.08 1018.02 1017.94 1017.75 1017.42
1008.07 1008.14 1008.06 1007.84 1007.61 1007.34 1006.48 1005.75 1003.64 1003.86 1003.08 1002.68 1002.70 1002.92 1003.19 1003.76 1004.47 1005.02 1005.72 1006.75 1007.36 1008.08 1008.43 1008.83 1009.40 1010.22 1011.03 1011.58 1012.14 1012.86 1013.61 1014.46 1015.19 1016.10 1016.90 1017.32 1017.62 1017.90 1018.02 1018.04 1018.11 1018.28 1018.10 1018.27 1018.19 1018.26 1018.33 1018.20 1017.89
1008.18 1008.06 1008.01 1007.99 1007.42 1006.12 1005.40 1005.05 1003.02 1002.76 1002.24 1001.88 1001.92 1001.93 1002.25 1002.86 1003.58 1004.48 1005.62 1006.78 1007.44 1007.87 1008.38 1008.84 1009.58 1010.40 1011.10 1011.54 1011.97 1012.43 1013.30 1014.22 1015.16 1016.03 1016.54 1017.18 1017.39 1017.93 1018.25 1018.19 1018.28 1018.44 1018.48 1018.52 1018.40 1018.44 1018.61 1018.58 1018.58
1008.62 1008.53 1007.78 1006.97 1006.37 1004.71 1004.73 1004.26 1002.97 1002.45 1001.97 1001.88 1001.54 1001.66 1002.11 1002.64 1003.30 1004.14 1005.08 1006.07 1007.19 1007.81 1008.38 1008.89 1009.55 1010.28 1010.89 1011.20 1012.17 1012.90 1013.66 1014.38 1014.84 1015.45 1016.18 1016.80 1017.04 1017.71 1018.32 1018.27 1018.38 1018.35 1018.51 1018.76 1018.69 1018.65 1018.79 1019.14 1019.11
1009.62 1009.24 1008.19 1006.86 1006.11 1004.98 1005.26 1003.34 1002.38 1002.50 1002.19 1002.21 1002.16 1002.02 1002.32 1002.56 1002.98 1003.60 1004.06 1005.44 1006.93 1007.94 1008.63 1009.10 1009.80 1010.46 1011.14 1011.40 1012.22 1013.06 1013.73 1014.23 1015.03 1015.71 1016.21 1016.56 1016.88 1017.74 1018.25 1018.47 1018.62 1018.86 1019.10 1019.09 1019.12 1018.97 1019.10 1019.35 1019.39
1010.76 1010.24 1010.06 1008.51 1007.32 1006.38 1004.97 1003.62 1003.58 1003.24 1002.96 1002.89 1003.25 1003.04 1002.98 1002.57 1002.51 1002.84 1004.08 1005.61 1006.96 1007.83 1008.55 1009.19 1009.89 1010.59 1010.95 1010.99 1011.79 1012.86 1013.93 1014.45 1015.16 1015.93 1016.26 1016.77 1017.39 1018.02 1018.31 1018.71 1019.00 1019.22 1019.40 1019.51 1019.34 1019.16 1019.27 1019.48 1019.64
1013.50 1013.04 1011.42 1010.18 1008.76 1007.15 1005.33 1005.01 1004.49 1004.83 1005.55 1005.60 1005.41 1005.25 1004.84 1004.26 1003.93 1004.18 1004.34 1005.68 1006.86 1007.62 1008.70 1009.25 1009.80 1010.25 1010.58 1010.73 1011.44 1012.53 1013.60 1014.47 1015.01 1015.58 1015.95 1016.65 1017.71 1018.21 1018.49 1018.98 1018.99 1019.54 1019.54 1019.64 1019.45 1019.51 1019.68 1019.73 1019.83
1015.06 1014.68 1014.81 1013.96 1012.10 1009.99 1007.68 1006.31 1007.58 1007.78 1008.00 1007.68 1007.28 1006.92 1006.18 1005.08 1004.37 1004.76 1005.35 1006.36 1006.98 1007.60 1008.30 1008.64 1009.08 1009.56 1010.12 1010.47 1011.45 1012.59 1013.48 1014.31 1015.25 1016.24 1016.34 1016.68 1016.70 1018.23 1018.70 1018.77 1018.96 1019.43 1019.50 1019.54 1019.65 1019.71 1019.74 1019.84 1019.93
1017.86 1018.18 1017.80 1016.74 1014.80 1013.83 1011.86 1008.31 1008.60 1008.70 1009.24 1009.18 1008.49 1007.55 1006.97 1006.48 1005.64 1005.57 1006.74 1007.02 1006.93 1007.06 1007.47 1008.05 1008.56 1008.97 1009.40 1010.01 1011.10 1012.26 1013.14 1013.79 1014.38 1015.72 1016.97 1017.60 1017.54 1018.20 1018.53 1018.79 1019.12 1019.26 1019.72 1019.66 1019.71 1019.51 1019.50 1019.55 1019.69
Wind_Speed
4 3 1 3 2 2 0 2 2 0 3 2 10 3 5 4 0 2 2 7 15 18 16 16 15 14 16 16 15 15 13 14 15 16 15 15 15 14 13 13 12 13 13 12 12 11 11 11 9
6 2 1 1 1 2 2 1 5 1 5 4 7 3 2 2 3 8 11 8 16 16 14 13 14 14 16 16 16 15 15 15 15 15 15 14 14 13 13 12 12 12 11 11 10 9 9 8 7
5 1 3 2 1 1 3 3 3 3 5 6 3 6 4 4 2 11 4 15 17 15 14 13 14 14 16 16 16 15 16 15 14 14 14 14 13 12 11 11 10 10 9 9 8 7 6 6 4
1 3 3 2 2 0 3 6 1 6 4 3 4 4 3 6 5 3 14 17 15 14 13 14 14 14 15 15 15 15 15 15 14 13 13 12 11 10 9 9 8 8 7 7 7 5 5 4 3
2 0 2 0 3 3 3 5 3 7 2 3 2 3 3 3 5 13 15 14 15 14 12 14 15 15 15 15 15 15 15 14 13 12 11 11 9 8 7 7 6 6 5 4 4 3 3 2 2
2 1 1 1 3 3 5 3 4 3 3 3 4 5 4 3 7 11 14 15 15 14 13 12 12 13 13 14 14 14 13 13 12 11 11 10 9 7 6 5 4 3 2 1 0 1 1 1 2
1 0 2 2 3 3 1 2 6 4 1 2 4 6 1 7 9 12 13 13 14 14 12 11 11 11 13 13 13 13 12 11 10 9 9 9 8 6 4 3 2 2 2 3 4 5 4 5 4
3 1 3 3 0 4 2 5 5 3 3 1 4 5 5 9 14 13 14 13 12 12 12 12 10 11 10 11 12 11 11 12 10 10 9 8 6 5 4 3 3 4 4 6 6 7 7 7 8
2 3 2 2 2 6 3 6 6 5 4 2 2 1 4 18 14 13 14 13 12 11 12 12 11 10 9 9 10 11 11 10 9 9 9 7 5 5 4 0 4 6 7 8 8 9 8 8 10
4 4 3 1 2 5 6 4 3 6 7 6 6 9 15 17 17 17 16 16 16 15 14 12 12 11 10 7 8 8 8 7 7 7 7 6 5 4 5 5 5 8 9 10 9 10 9 10 4
5 8 4 3 5 2 1 3 4 6 8 7 11 13 15 17 16 16 16 15 17 15 12 13 12 11 10 8 7 5 5 5 6 8 7 5 5 4 5 3 4 4 4 5 5 6 5 6 6
5 5 3 2 3 1 3 1 4 8 3 3 9 17 18 17 18 18 16 15 14 14 14 13 13 11 10 7 7 7 6 6 5 6 8 5 4 4 5 4 4 4 3 5 5 5 6 8 7
5 3 4 4 5 6 4 7 7 11 9 6 8 18 20 17 17 15 14 13 12 14 15 14 14 12 10 10 8 8 7 7 7 6 7 6 5 5 5 4 4 4 5 6 6 6 6 7 7
2 3 3 5 4 5 6 2 4 8 13 10 15 16 19 20 19 14 14 15 16 14 16 15 16 13 12 11 11 8 7 7 6 6 6 8 6 6 5 5 4 4 4 5 6 5 6 6 6
1 3 3 6 4 6 7 4 7 2 7 11 15 15 17 18 17 20 18 17 17 14 15 18 17 15 14 13 11 8 7 6 6 5 6 7 7 7 7 5 4 4 4 5 5 6 5 6 5
2 2 7 6 5 1 9 16 11 4 6 9 12 14 17 20 24 19 17 16 15 15 17 16 14 16 15 12 10 7 6 5 5 4 5 6 8 8 7 5 5 4 4 3 3 3 4 4 5
2 5 4 4 1 2 8 7 6 4 7 8 14 16 17 18 19 20 20 18 17 18 16 16 15 15 14 11 8 8 6 5 4 4 4 6 7 8 5 5 3 3 2 0 1 2 2 3 4
3 3 3 6 3 2 2 11 13 10 7 12 13 17 18 18 23 21 20 18 17 17 16 15 14 14 13 9 7 5 4 3 2 1 1 2 4 6 5 4 3 3 4 3 3 3 2 2 3
2 4 9 7 8 8 14 12 13 10 11 13 12 16 19 20 21 14 15 15 15 16 16 17 16 15 12 10 10 6 5 4 3 3 5 5 6 8 8 5 5 4 3 3 1 2 3 1 4
5 7 11 9 6 5 11 14 15 12 10 10 15 16 20 22 19 15 15 13 14 15 16 17 17 17 14 10 9 5 6 3 4 4 5 6 8 9 8 8 5 4 4 4 3 1 0 2 4
7 11 7 9 5 10 12 13 10 5 6 9 13 15 16 22 23 18 16 14 11 14 17 16 17 17 14 13 9 8 8 5 4 5 5 6 7 8 8 7 6 6 5 4 4 5 4 3 3
10 9 11 9 5 7 2 9 9 8 8 10 12 13 15 19 18 17 13 13 12 13 13 15 16 16 15 17 14 16 11 10 5 7 6 7 8 8 9 9 8 7 6 6 5 6 5 3 4
5 2 6 7 8 7 12 8 8 4 7 10 10 13 15 15 16 15 13 10 8 9 11 12 14 15 15 15 14 12 10 7 9 8 11 9 9 9 9 9 9 8 5 6 7 6 5 4 3
4 10 5 2 5 12 15 13 11 12 11 10 8 10 12 14 15 14 12 10 10 10 10 11 13 12 14 14 15 14 15 14 12 11 10 9 9 8 8 9 8 7 7 6 5 5 6 5 4
7 7 6 7 9 14 7 9 12 7 12 13 13 12 12 13 14 15 17 16 14 13 11 11 13 12 12 12 13 13 14 15 15 15 10 11 9 8 7 8 7 6 7 5 4 5 6 5 5
12 6 7 11 10 13 1 10 10 11 12 10 10 13 9 12 16 18 21 17 14 13 11 11 11 9 12 15 14 12 14 10 10 10 9 8 9 8 8 7 8 7 6 5 4 4 4 4 4
4 6 10 12 15 11 12 16 11 12 13 10 14 16 14 13 16 20 15 14 14 13 12 13 13 11 13 15 14 14 10 12 10 12 10 9 9 8 9 8 8 7 6 5 4 4 4 4 3
8 11 5 5 9 18 12 10 10 12 17 19 22 21 21 18 12 12 12 13 13 14 11 12 13 15 15 15 14 13 13 12 14 13 13 12 9 9 10 9 9 6 6 4 3 4 4 3 3
11 4 6 5 6 10 16 11 5 11 15 19 21 21 22 21 12 10 10 12 13 13 12 15 16 18 16 15 15 15 14 14 13 10 11 11 14 10 9 9 9 7 6 4 4 4 4 3 2
9 7 8 5 6 6 6 9 9 12 16 17 22 21 19 19 11 5 9 12 14 17 18 17 17 17 17 17 17 18 16 16 14 11 9 9 9 9 9 9 8 7 5 5 5 4 4 2 1
Wind_Direction
81 157 198 234 227 268 162 77 317 195 166 342 148 153 209 40 99 48 126 147 152 153 154 155 150 141 129 123 121 119 117 118 118 119 122 123 122 124 120 118 117 117 118 116 115 114 111 106 104
122 125 198 328 291 149 296 173 193 175 32 52 126 43 62 72 96 114 136 169 153 147 149 148 144 138 129 126 126 127 124 123 125 126 126 127 129 128 128 127 125 120 116 120 120 118 113 110 107
134 283 299 16 73 92 269 257 269 58 78 37 86 50 8 11 50 151 131 154 145 148 148 142 144 138 131 130 129 129 128 130 131 132 133 132 133 133 130 128 129 128 125 123 121 119 113 106 99
168 163 121 309 221 238 285 331 44 115 88 70 90 97 97 13 141 145 138 148 141 147 147 140 143 139 135 134 134 135 136 136 138 137 137 139 137 137 135 135 136 132 128 125 122 117 99 80 65
54 141 3 65 255 286 291 304 164 108 39 48 10 98 77 44 92 135 140 149 146 145 151 147 150 145 144 142 142 143 143 142 144 146 148 142 142 149 150 149 147 137 132 130 127 122 109 84 4
118 299 161 301 293 297 296 268 158 115 347 66 120 129 132 115 146 143 145 152 151 148 155 149 156 149 148 145 148 150 149 148 151 155 154 150 159 166 167 162 153 155 150 141 218 264 295 260 279
120 159 131 257 325 302 280 183 184 126 219 145 135 156 124 189 153 150 149 151 152 154 160 161 163 159 157 154 155 155 152 157 159 161 158 165 171 178 181 191 210 252 309 307 303 308 312 302 295
114 153 177 219 2 51 86 177 116 153 178 130 204 183 184 159 152 151 155 154 158 163 167 168 172 171 173 162 159 159 162 169 171 171 177 177 182 195 209 236 227 289 292 293 299 307 306 301 301
165 225 223 203 269 8 47 211 144 143 158 204 173 253 96 133 142 154 156 159 167 173 177 175 179 178 179 170 162 166 172 178 181 187 190 185 200 194 210 296 285 281 288 293 298 296 291 294 266
197 235 221 198 241 358 325 261 187 185 173 200 172 90 131 143 161 166 176 176 180 182 182 184 187 186 181 178 173 179 177 187 193 196 193 204 207 213 251 265 273 281 282 283 283 285 289 266 307
162 235 189 217 254 269 298 229 197 226 211 210 200 151 161 161 175 184 193 191 184 181 181 189 190 187 189 191 179 183 188 191 199 204 206 206 217 217 232 252 242 259 256 287 294 292 292 308 305
208 241 199 145 188 208 272 103 238 229 231 290 217 159 165 179 186 195 196 191 189 190 188 189 189 188 194 197 192 186 195 200 199 206 212 211 231 224 244 251 264 260 278 302 295 299 300 293 290
222 215 196 244 256 260 282 253 268 243 193 132 168 160 176 189 198 200 198 194 195 197 191 192 192 191 193 204 196 198 199 204 206 201 212 217 228 239 243 261 271 290 307 300 293 290 293 298 296
201 203 283 278 240 239 247 316 214 262 177 152 168 189 184 194 200 201 200 199 201 202 196 194 198 193 194 203 201 200 204 206 211 217 218 220 234 240 244 242 255 267 267 287 288 289 293 295 300
87 263 270 228 239 235 185 237 225 203 169 190 185 195 194 202 203 213 206 205 200 202 201 198 197 194 199 201 197 207 210 204 214 221 221 225 230 235 247 243 239 242 269 272 268 276 287 282 282
172 220 240 211 200 179 208 252 234 196 176 206 212 200 202 202 213 216 215 213 202 203 204 203 200 196 199 197 192 201 213 213 219 223 225 222 232 230 232 246 253 263 264 265 293 327 301 308 316
47 246 216 262 290 223 220 238 253 0 206 220 227 215 205 208 217 221 218 212 205 205 202 203 205 204 199 194 197 197 213 229 223 228 227 225 229 230 235 256 263 216 210 354 347 4 336 300 316
247 243 205 244 103 17 257 267 279 289 281 266 226 228 222 211 215 215 214 213 208 205 204 200 199 202 192 184 179 183 181 195 205 141 265 226 188 192 167 139 146 148 151 143 170 217 224 269 321
252 267 274 267 267 295 277 266 269 273 248 256 230 221 228 229 221 218 211 206 206 204 197 198 191 190 181 180 172 176 178 169 140 130 143 131 136 146 137 141 146 156 141 140 167 294 293 287 345
210 264 269 288 280 240 272 278 282 277 259 248 240 218 225 231 220 215 212 206 202 201 198 193 192 185 186 184 179 159 165 153 134 131 125 135 135 129 137 141 140 135 128 128 140 199 246 30 23
236 254 256 275 300 248 273 262 257 237 259 263 256 250 235 233 236 221 205 206 207 210 203 198 192 184 181 179 152 133 119 120 131 121 101 100 113 107 116 118 117 105 98 89 59 55 54 42 68
272 222 250 264 264 269 317 284 258 264 259 249 257 243 237 227 231 240 222 208 205 210 206 199 192 184 179 171 173 170 173 164 156 139 130 118 115 114 115 112 110 111 108 101 85 65 57 24 48
271 218 276 277 256 283 251 255 262 239 249 258 247 232 231 227 218 225 223 218 203 194 193 187 181 179 174 176 174 170 166 147 137 136 134 125 112 116 117 116 113 109 108 96 84 75 63 69 60
293 290 268 239 247 250 257 236 252 242 249 257 251 256 240 227 217 213 204 185 191 176 170 166 161 168 173 171 168 168 159 151 146 149 144 142 131 127 121 109 104 103 98 91 92 94 80 79 77
251 273 282 258 234 262 286 250 251 254 249 250 266 271 250 240 223 212 202 193 183 175 161 154 158 156 164 163 166 165 159 158 154 156 155 146 136 133 126 120 120 109 100 90 87 86 81 61 59
294 251 260 271 272 287 72 257 256 222 255 261 258 262 261 233 228 225 216 199 177 166 159 157 144 132 153 152 148 151 149 150 151 153 148 148 135 135 131 115 108 102 98 94 90 87 79 87 82
31 241 341 282 269 274 259 263 258 245 244 269 320 322 289 251 223 224 220 197 173 155 150 153 152 152 155 147 136 139 144 146 147 148 143 137 129 130 126 125 121 113 110 109 120 105 119 104 82
17 338 285 229 270 258 248 260 269 24 7 3 1 346 330 314 274 245 208 182 162 142 144 153 156 162 160 147 146 148 153 152 149 151 146 141 134 138 135 132 119 120 121 120 123 138 110 88 53
328 3 346 280 309 284 277 266 89 46 10 359 353 349 342 327 287 229 196 158 150 147 161 164 166 160 159 153 149 149 152 153 151 154 151 145 142 147 145 138 138 144 132 121 125 118 126 113 88
67 43 32 345 324 293 275 254 141 40 356 349 341 345 346 337 311 239 171 163 167 171 172 174 169 166 162 157 158 157 152 156 147 145 154 155 137 151 151 150 143 132 133 134 141 142 140 174 272